Retour au catalogue

CZ-4B DEB

ActifLEO
NORAD 48623·DEBRIS·🇨🇳 China

Lancé May 19, 2021 depuis Jiuquan Satellite Launch Center

Loading…

Prochains Passages (prochaines 24 heures)

TLE

FraisSource: Space-Track

Époque: Sep 14, 2026, 10:37 UTC

1 48623U 21043C   26257.44268996  .00000023  00000-0  84649-4 0  9993
2 48623  66.0810  49.9926 0038303 265.1879  94.4819 13.89785323270081

Suivez CZ-4B DEB en temps réel avec AllMySat

Download on the App Store